Regional Weather Roundup
Issued by NWS Grand Forks, ND

Home | Current Version | Previous Version | Graphics & Text | Print | Product List | Glossary On
Versions: 1 2 3 4 5 6 7 8 9 10 11 12 13 14 15 16 17 18 19 20 21 22 23 24 25 26 27 28 29 30 31 32 33 34 35 36 37 38 39 40 41 42 43 44 45 46 47 48 49 50
000
ASUS43 KFGF 220410
RWRFGF
PRAIRIE TO PINES  WEATHER ROUNDUP
NATIONAL WEATHER SERVICE EASTERN NORTH DAKOTA/GRAND FORKS ND
1100 PM CDT SUN MAY 21 2017

 **SATELLITE DATA USED TO AUGMENT SKY COVER AT AUTOMATED STATIONS**
 *****  WEATHER ACROSS EASTERN NORTH DAKOTA  *****

CITY           SKY/WX    TMP DP  RH WIND       PRES   REMARKS
GRAND FORKS    CLOUDY    48  44  86 NW8       29.88R
GRAND FRKS AFB FAIR      45  43  91 NW8       29.89R
DEVILS LAKE    FAIR      44  41  89 CALM      29.93S
FARGO          FAIR      43  41  93 W7        29.89S
WAHPETON ARPT  FAIR      43  37  81 W6        29.92R
$$

 ***** WEATHER ACROSS CENTRAL AND WESTERN NORTH DAKOTA  *****

CITY           SKY/WX    TMP DP  RH WIND       PRES   REMARKS
BISMARCK       MOCLDY    55  36  48 CALM      29.95R
MINOT          FAIR      53  37  54 E6        29.92R
JAMESTOWN      FAIR      44  40  85 CALM      29.92S
MINOT AFB      CLOUDY    54  37  52 SE7       29.92R
GARRISON         N/A     50  36  58 S5        29.93R
WILLISTON      FAIR      58  38  47 NW15      29.97S
DICKINSON      FAIR      51  38  60 W14       29.95S
HETTINGER      FAIR      47  42  83 W9        30.01S
$$

 *****  OTHER AIRPORT OBSERVATIONS IN OUR AREA  *****

CITY           SKY/WX    TMP DP  RH WIND       PRES   REMARKS
WALHALLA       NOT AVBL
GRAFTON AIRPOR DRIZZLE   46  46 100 NW12      29.90S
VALLEY CITY AR NOT AVBL
CANDO          NOT AVBL
CAVALIER APRT  FAIR      46  45  93 NW9       29.88S
GWINNER        CLEAR     45  43  93 MISG      29.92F
SHEYENNE NWR     N/A     42  41  95 CALM      29.95
ROLLA          MOCLDY    41  36  81 NW6       29.94S
 ***** THE ABOVE OBSERVATIONS ARE NON NWS ARE NOT QUALITY
       CONTROLLED AND MAY MIS-REPORT RAIN FOR SNOW...
$$

  *****  WEATHER ACROSS NORTHERN MINNESOTA  *****

CITY           SKY/WX    TMP DP  RH WIND       PRES   REMARKS
FLAG ISLAND    CLOUDY    46  43  87 NE13      29.78S
WARROAD        DRIZZLE   45  43  93 W3        29.81S
ROSEAU         CLOUDY    46  43  87 NW7       29.81S
HALLOCK        DRIZZLE   46  45  93 N12G20    29.85S
THF RVR FALLS  CLOUDY    46  43  89 W10       29.84F
BAUDETTE       CLOUDY    45  44  97 W9        29.78S FOG
WASKISH        CLOUDY    46  43  87 NW8       29.80S
CROOKSTON      CLOUDY    48  45  87 NW14      29.87S
STEPHEN NDAWN    N/A     46  45  93 NW12        N/A
GREENBUSH NDAW   N/A     46  45  93 NW12        N/A
$$
  *****  WEATHER ACROSS CENTRAL AND WEST MINNESOTA  *****

CITY           SKY/WX    TMP DP  RH WIND       PRES   REMARKS
FOSSTON        MOCLDY    43  41  93 W8        29.85S
BEMIDJI        DRIZZLE   44  42  94 W6        29.82S
PARK RAPIDS    CLOUDY    44  40  85 W6        29.85R
ELBOW LAKE     FAIR      42  42  98 SW8       29.91S
WADENA         MOCLDY    45  39  81 SW7       29.87S
DETROIT LAKES  CLOUDY    46  43  87 W9        29.88S
MOORHEAD       FAIR      43  41  93 W6        29.90S
FERGUS FALLS   FAIR      43  43 100 W5        29.90S
MORRIS MN      MOCLDY    46  45  93 SW6       29.91F
STAPLES        DRIZZLE   45  43  93 W6        29.87S
$$
  *****  WEATHER ELSEWHERE ACROSS MINNESOTA  *****

CITY           SKY/WX    TMP DP  RH WIND       PRES   REMARKS
DULUTH         DRIZZLE   45  44  97 W9        29.78S FOG
INTRNTL FALLS  CLOUDY    46  44  93 W7        29.76S FOG
ELY            CLOUDY    45  45 100 W5        29.75S
CLOQUET        CLOUDY    45  43  93 W7        29.80S
WHEATON        FAIR      46  43  87 SW5       29.94S
BRAINERD       CLOUDY    44  42  93 W9        29.86S
HIBBING        CLOUDY    43  43 100 W3        29.78S
ALEXANDRIA     FAIR      43  41  93 W8        29.91S
SAINT CLOUD    CLOUDY    45  42  89 W8        29.89S
MINNEAPOLIS    CLOUDY    47  40  76 W6        29.92R
$$

  *****  WEATHER ACROSS SOUTH DAKOTA  *****

CITY           SKY/WX    TMP DP  RH WIND       PRES   REMARKS
SIOUX FALLS    FAIR      51  45  79 S7        29.96F
BROOKINGS      FAIR      47  43  86 E3        29.96S
WATERTOWN      FAIR      44  41  89 E3        29.94F
HURON          FAIR      50  45  83 E3        29.92F
SISSETON         N/A     47  41  80 W8        29.92S
ABERDEEN       MOCLDY    47  42  83 S7        29.95R
MITCHELL       CLOUDY    58  42  55 SW12      29.95S
PIERRE         FAIR      56  41  57 W9        29.98R
MOBRIDGE       FAIR      52  42  69 N10       29.93R
RAPID CITY     FAIR      48  41  76 NW13      30.10S
$$

  *****  SOME WEATHER IN NEARBY STATES *****

CITY           SKY/WX    TMP DP  RH WIND       PRES   REMARKS
GLASGOW MT     RAIN      50  45  83 NE18G32   30.09R
GREAT FALLS MT FAIR      53  39  59 NW3       30.16R
CHEYENNE WY    FAIR      44  37  76 NW7       30.26R
SCOTTSBLUFF NE MOCLDY    51  32  48 N15       30.21R
OMAHA NE       FAIR      55  45  68 S6        30.09R
DES MOINES IA  FAIR      50  44  80 S6        30.09S
DAVENPORT IA   CLOUDY    51  42  71 SW15      30.07S
CHICAGO IL     CLOUDY    52  40  63 SW15      30.03R
EAU CLAIRE WI  CLOUDY    46  42  86 W15       29.88R
LA CROSSE WI   CLOUDY    50  41  71 W12       29.94S
$$

  *****  SOME NATIONAL WEATHER *****

CITY           SKY/WX    TMP DP  RH WIND       PRES   REMARKS
LA GUARDIA NY  CLOUDY    60  43  53 S12       30.25F
RALEIGH NC     CLOUDY    70  64  81 SE9       30.13F FOG
ATLANTA GA     CLOUDY    74  67  78 SW3       30.09F
NEW ORLEANS LA LGT RAIN  71  68  90 SE25G32   30.00F
OKLAHOMA CITY  MOCLDY    58  53  84 SE7       30.15R
ALBUQUERQUE NM FAIR      70  15  12 N9        30.10R
SALT LAKE CITY FAIR      59  47  64 S5        30.22R
LOS ANGELES CA FAIR      62  58  86 W9        29.92R
BOISE ID       FAIR      68  46  45 N7        30.17R
SEATTLE WA     MOCLDY    67  51  56 N12       30.17R
$$

*** WEATHER ACROSS MANITOBA...SASKATCHEWAN AND ONTARIO ***
                ***ONTARIO***

CITY           SKY/WX    TMP DP  RH WIND       PRES   REMARKS
GERALDTON      DRZL/FOG  46  46 100 E9        29.70F VSB 1
THUNDER BAY    CLOUDY    43  43 100 SW5       29.70S
SIOUX LOOKOUT  LGT RAIN  45  43  93 CALM      29.73F FOG
TORONTO        CLOUDY    54  54 100 SE5       29.91F FOG
BIG TROUT LK   MOCLDY    50  34  53 E8        29.95F
PICKLE LAKE    NOT AVBL
DRYDEN         CLOUDY    45  45 100 N5        29.74S
KENORA         CLOUDY    45  41  87 N5        29.79S
$$
                *** MANITOBA***

CITY           SKY/WX    TMP DP  RH WIND       PRES   REMARKS
BRANDON        MOCLDY    45  37  76 NW6       29.94S
DAUPHIN        CLEAR     43  37  81 W6        29.96R
ISLAND LAKE    NOT AVBL
PILOT MOUND      N/A     46  39  76 N7          N/A
THE PAS        PTCLDY    54  32  43 E6        30.01R
THOMPSON       MOCLDY    55  30  38 NE12G17   30.03S
WINNIPEG       CLOUDY    48  46  93 NW13      29.85F
LYNN LAKE      MOCLDY    55  30  38 E5        30.10R
CHURCHILL      MOCLDY    32  32 100 NE14      30.23R WCI  22
$$
                ***SASKATCHEWAN***

CITY           SKY/WX    TMP DP  RH WIND       PRES   REMARKS
ESTEVAN        MOCLDY    59  39  47 NW13      29.93S
KINDERSLEY     PTCLDY    52  39  62 NE9       30.07R
LLOYDMINSTER   PTCLDY    54  41  62 E8        30.11R
PRINCE ALBERT  PTCLDY    52  41  66 N10       30.04R
REGINA         MOCLDY    54  39  58 NW13      30.00R
YORKTON        PTCLDY    54  36  50 SE5       29.96R
N. BATTLEFORD  MOCLDY    52  41  66 NW3       30.10R
LA RONGE       MOCLDY    55  43  62 N9        30.09R
SASKATOON      PTCLDY    46  41  81 NW8       30.06R
SWIFT CURRENT  CLEAR     52  36  54 NE10      30.05R
$$
NOTE: THESE ARE AUTOMATED STATIONS WITH LIMITED QUALITY CONTROL
      "FAIR" INDICATES FEW OR NO CLOUDS BELOW 12,000 FEET WITH NO
      SIGNIFICANT WEATHER AND/OR OBSTRUCTIONS TO VISIBILITY.
      SKY/WX - SKY CONDITION AND SIGNIFICANT WEATHER.
      TMP - AIR TEMPERATURE.    DP   - DEWPOINT TEMPERATURE.
      RH  - RELATIVE HUMIDITY.  PRES - PRESSURE.
      HX  - HEAT INDEX.         WCI  - WIND CHILL INDEX.
$




USA.gov is the U.S. government's official web portal to all federal, state and local government web resources and services.